Location: Unspecified
(49.2170°N, 0.0000°E)
Time: 05:39:50
(UTC+00:00)

Transit 4A - Pass Details

Date: 24 June 2019
Orbit: 862 x 982 km, 66.8° (Epoch: 21 July)

Event Time Altitude Azimuth Distance (km) Brightness Sun altitude
Rises 11:08:19 0° 285° (WNW) 3,675 10.8 62.1°
Reaches altitude 10° 11:11:50 10° 304° (WNW) 2,738 10.2 62.3°
Maximum altitude 11:16:05 18° 346° (NNW) 2,212 9.8 62.6°
Drops below altitude 10° 11:20:21 10° 27° (NNE) 2,744 10.3 62.9°
Sets 11:23:53 0° 46° (NE) 3,685 10.9 63.1°
